Temperature
20 20 20 21 18 16 17 18 18 18 18 18 18 18 17 16 17 16 17 17 17 16 16 16 16 16 16 16 16 16 16 16 17 17 17 17 17 17 17 17 17 17 17 17 17 17 17 17 17
21 21 21 20 16 16 18 18 18 18 18 18 18 18 17 16 17 17 17 17 17 17 17 16 16 16 16 16 16 16 16 16 16 16 17 17 17 17 17 17 17 17 17 17 17 17 17 17 17
21 21 21 16 17 17 18 18 18 18 19 18 18 17 17 17 17 17 17 17 17 17 17 17 16 16 16 16 16 16 16 16 16 16 16 16 17 17 17 17 17 17 17 17 17 17 17 17 17
21 21 20 17 18 18 18 18 18 19 19 18 18 17 17 17 17 17 17 17 17 17 17 17 16 16 16 16 16 16 16 16 16 16 16 16 16 16 16 16 16 16 16 16 17 17 17 17 17
21 21 17 17 18 18 18 19 19 18 18 18 17 17 17 17 17 17 17 17 17 17 17 17 16 16 16 16 16 16 16 16 16 16 16 16 16 16 16 16 16 16 16 16 16 17 17 17 17
21 18 16 17 18 19 19 19 19 18 18 18 17 17 17 17 17 17 17 17 17 17 17 16 16 16 16 16 16 16 16 16 16 16 16 16 16 16 16 16 16 16 16 16 16 16 16 16 16
20 16 17 18 18 19 19 19 19 18 18 18 18 17 17 17 17 17 17 17 17 17 17 16 16 16 16 16 16 16 16 16 16 16 16 16 16 16 16 16 16 16 16 16 16 16 16 16 16
21 16 17 18 18 19 19 19 19 19 18 18 18 17 17 17 17 17 17 17 17 17 16 16 16 16 16 16 16 16 16 16 16 16 16 16 16 16 16 16 16 16 16 16 16 16 16 16 16
21 16 17 18 18 19 19 19 19 19 18 18 18 18 18 17 17 17 17 17 17 17 17 16 16 16 16 16 16 16 16 16 16 16 16 16 16 16 16 16 16 16 16 16 16 16 16 16 16
21 17 19 19 19 19 19 19 19 19 18 18 18 18 18 18 17 17 17 17 17 17 17 17 16 16 16 16 16 16 16 16 16 16 16 16 16 16 16 16 16 16 16 16 16 16 16 16 16
20 19 19 20 20 20 19 19 19 18 17 18 18 18 18 18 17 17 17 17 17 17 17 17 16 16 16 16 16 16 16 16 16 16 16 16 16 16 16 16 16 16 15 15 15 16 16 16 16
20 20 20 20 20 20 20 19 19 19 19 19 19 19 18 18 17 17 17 17 17 17 17 17 16 16 16 16 16 16 16 16 16 16 16 16 16 16 15 15 15 15 15 15 15 15 15 15 15
20 20 20 21 20 20 20 19 19 19 19 19 19 18 18 18 18 18 17 17 17 17 17 16 16 16 16 16 16 16 16 16 16 16 16 16 16 16 15 15 15 15 15 15 15 15 15 15 15
20 20 20 20 20 20 19 19 19 19 19 19 19 18 18 18 18 18 17 17 17 17 17 16 16 16 16 16 16 16 16 16 16 16 16 16 16 16 15 15 15 15 15 15 15 15 15 15 15
21 20 19 19 20 20 19 18 18 19 19 18 18 18 18 18 18 18 18 17 17 17 17 16 16 16 16 16 16 16 16 16 16 16 16 16 16 16 15 15 15 15 15 15 15 15 15 15 15
20 19 18 19 19 19 19 18 18 19 19 18 18 18 18 18 18 18 18 17 17 17 17 16 16 16 16 16 16 16 16 16 16 16 16 16 15 15 15 15 15 15 15 15 15 15 15 15 15
18 18 19 19 19 19 18 17 18 18 18 17 17 17 18 18 18 18 18 17 17 17 17 17 16 16 16 16 16 16 16 16 16 16 16 16 16 15 15 15 15 15 15 15 15 15 15 15 14
19 18 19 19 19 18 17 17 17 18 17 17 17 17 17 18 18 18 17 17 17 17 17 17 16 16 16 16 16 16 16 16 16 16 15 15 15 15 15 15 15 15 15 15 15 15 15 14 14
19 19 18 19 19 18 17 17 17 17 17 17 17 17 17 17 18 17 17 17 17 17 17 17 16 16 16 16 16 16 16 16 16 15 15 15 15 15 15 15 15 15 15 15 15 15 14 14 14
19 19 18 19 19 18 17 17 17 17 16 17 17 17 17 17 17 17 17 17 17 17 17 17 16 16 16 16 16 16 16 16 15 15 15 15 15 15 15 15 15 15 15 15 15 15 14 14 14
19 19 19 19 18 18 18 17 17 17 17 17 17 17 17 17 17 17 17 17 17 17 17 17 16 16 16 16 16 16 15 15 15 15 15 15 15 15 15 15 15 15 15 15 15 15 14 14 14
19 20 19 19 17 16 17 16 17 16 16 16 16 17 17 17 17 17 17 17 17 17 17 17 16 16 16 16 16 15 15 15 15 15 15 15 15 15 15 15 15 15 15 15 15 14 14 14 14
19 19 19 18 17 16 17 16 16 16 16 16 16 16 17 17 17 17 17 17 17 17 17 17 16 16 16 16 16 15 15 15 15 15 15 15 15 15 15 15 15 15 15 15 15 14 14 14 14
19 18 17 16 16 16 17 16 16 15 16 16 16 17 17 17 17 17 17 17 17 17 17 16 16 16 16 16 16 15 15 15 15 15 15 15 15 15 15 15 15 15 15 14 14 14 14 14 14
18 17 16 16 15 16 16 16 16 17 17 16 16 17 17 17 17 17 17 17 17 17 16 16 16 16 16 16 15 15 15 15 15 15 15 15 15 15 15 15 15 15 14 14 14 14 14 14 14
18 17 17 17 16 16 16 16 16 17 17 18 18 17 17 17 17 17 17 17 17 16 16 16 16 16 16 15 15 15 15 15 15 15 15 15 15 15 15 15 15 14 14 15 15 14 14 14 14
18 17 17 16 16 16 16 16 17 17 17 17 17 17 17 17 17 17 17 17 17 16 16 16 16 16 16 15 15 15 15 15 15 15 15 15 15 15 15 14 14 14 14 15 15 14 14 14 14
18 16 15 16 16 16 16 16 16 17 17 16 16 17 17 17 17 17 17 17 17 16 16 16 16 16 15 15 15 15 15 15 15 15 15 15 15 15 15 14 14 14 14 14 14 14 14 14 14
18 17 15 14 15 15 16 16 17 17 17 16 17 17 18 17 17 17 17 17 16 16 16 16 16 15 15 15 15 15 15 15 15 15 14 14 14 14 14 14 14 14 14 14 14 14 14 14 14
18 17 15 16 15 14 14 15 17 16 17 17 17 18 18 18 17 17 17 17 16 16 16 16 16 15 15 15 15 15 15 14 15 15 14 14 14 14 14 14 14 14 14 14 14 14 14 14 14
Wind_Speed
3 3 3 4 6 6 4 3 2 2 3 3 4 6 6 4 3 2 2 1 1 1 1 1 4 5 5 6 6 7 7 8 8 8 9 9 9 9 10 10 10 10 10 9 10 10 9 9 9
1 2 4 5 5 4 3 3 3 2 3 4 5 5 5 4 2 2 1 1 2 1 0 1 3 5 5 6 6 7 8 8 8 8 8 9 9 9 10 10 10 10 10 10 10 10 10 10 10
2 4 4 5 5 3 2 1 3 4 4 2 4 5 4 2 1 1 2 2 2 1 1 2 4 4 5 5 6 6 7 8 8 8 8 8 8 9 9 10 10 10 10 10 10 10 10 10 10
3 5 5 6 6 2 2 2 2 4 4 5 4 4 3 3 0 2 2 3 3 2 2 2 4 4 5 5 5 6 7 7 8 8 8 7 7 8 9 9 9 9 10 10 10 10 9 9 9
4 5 7 5 4 3 2 1 2 4 3 4 4 4 3 5 2 3 4 3 3 1 2 2 4 4 5 5 6 6 7 7 7 7 8 7 8 8 9 9 9 9 9 9 10 10 11 11 10
5 5 6 4 3 3 2 2 3 5 4 3 4 3 2 2 2 2 2 2 2 1 2 3 3 4 4 5 5 6 6 6 7 7 8 8 8 8 8 8 9 9 9 9 10 10 11 12 12
5 5 5 4 3 2 2 2 4 4 3 2 4 4 1 2 1 1 2 2 2 2 3 3 3 4 4 4 4 5 5 6 7 7 7 8 8 7 7 8 8 9 9 10 10 11 12 13 13
5 5 5 3 3 1 1 2 2 3 3 2 3 4 2 3 1 3 3 3 3 2 2 2 3 3 4 4 4 4 5 5 6 7 8 8 9 8 8 8 8 9 9 10 11 12 13 13 14
4 6 3 3 4 2 2 4 2 3 5 3 3 2 2 4 5 4 3 3 2 1 2 2 2 3 3 4 3 5 5 5 6 6 7 8 8 8 8 9 9 9 10 10 11 12 12 13 14
5 5 2 2 4 4 3 4 3 4 4 3 3 4 4 6 5 4 2 0 0 1 1 1 1 2 2 3 4 5 5 6 5 5 6 6 7 7 8 9 9 10 10 11 12 12 12 12 11
4 5 2 2 3 5 4 3 3 6 2 2 3 4 4 5 4 3 1 1 1 1 1 1 0 1 2 2 3 3 4 5 5 5 5 5 6 7 8 8 8 9 10 10 11 11 10 10 9
5 3 3 3 3 4 4 3 3 2 2 3 5 6 5 5 3 3 2 1 0 0 1 0 0 1 1 1 2 2 3 3 3 3 4 5 4 4 5 5 7 8 7 8 8 8 9 10 10
5 3 3 5 5 5 5 4 3 0 1 4 6 5 5 4 3 2 1 1 1 1 0 0 1 1 1 2 1 2 2 2 2 3 4 5 3 3 4 4 6 7 7 7 6 7 7 8 8
3 5 4 4 4 3 5 2 3 1 3 6 5 4 3 3 3 2 1 1 1 2 1 1 2 2 2 2 2 2 2 3 4 4 3 4 4 4 4 4 5 5 6 7 7 6 6 6 6
5 6 5 3 2 2 4 4 1 1 5 5 3 2 1 1 1 2 2 2 2 2 2 2 2 3 3 2 2 3 3 4 4 3 3 4 4 5 5 4 3 4 6 7 7 7 7 5 6
5 5 2 2 1 2 5 1 4 1 6 4 2 2 1 1 1 2 2 2 2 3 2 1 2 3 2 2 3 3 4 4 3 3 4 4 4 6 6 4 3 5 6 6 5 4 5 5 5
4 2 0 2 1 3 3 2 3 1 5 3 2 1 1 1 2 1 2 2 3 3 3 2 2 3 3 3 3 4 4 4 3 4 4 4 4 5 6 4 4 6 5 4 4 4 3 4 4
2 2 1 1 0 4 3 2 3 0 3 3 2 2 2 2 3 2 2 2 2 3 3 3 2 3 3 3 3 3 3 3 4 3 2 3 4 5 6 5 5 6 4 3 3 4 4 3 3
4 3 1 2 1 3 2 2 3 1 1 3 3 3 3 3 2 1 2 2 2 2 3 2 2 2 3 2 2 2 1 1 2 2 2 2 3 4 5 4 4 4 3 3 4 4 4 3 2
3 3 1 1 2 3 1 2 3 2 4 4 5 4 4 2 1 1 2 2 2 2 2 2 2 2 2 2 1 1 1 1 1 2 3 3 3 3 4 4 3 4 3 4 3 3 2 2 2
1 4 3 2 3 3 2 5 3 2 2 1 2 3 3 4 4 3 2 2 2 2 3 3 3 2 2 2 2 2 3 2 2 2 2 2 1 2 3 4 4 4 4 4 3 4 4 2 1
2 3 3 3 3 2 1 3 5 3 2 2 3 3 4 4 4 4 4 3 3 3 2 3 2 2 2 2 3 3 1 0 1 1 1 2 2 2 2 3 4 3 3 3 3 3 3 3 2
3 2 3 3 3 1 1 1 7 2 3 5 5 4 4 4 4 5 5 5 3 3 3 3 3 2 2 2 2 2 1 0 0 1 1 2 2 2 1 2 3 3 2 3 3 3 3 3 3
4 5 6 5 4 2 3 3 6 4 5 5 4 4 4 4 4 4 4 4 3 2 3 3 3 2 1 2 2 2 2 1 1 1 1 1 2 2 2 2 2 2 2 2 3 3 3 2 2
5 5 4 4 3 4 2 2 7 6 5 5 5 5 4 4 4 4 5 5 4 3 3 3 3 2 1 2 1 1 2 2 2 1 1 0 1 1 1 1 1 1 2 3 3 2 2 2 3
3 6 5 3 3 4 3 4 6 5 3 2 3 3 4 3 4 4 5 5 5 4 4 3 3 2 2 2 1 1 1 1 1 1 1 1 1 1 1 0 1 2 2 3 3 2 1 2 2
4 3 5 5 1 2 5 6 7 2 2 1 2 3 4 4 4 4 4 5 5 5 4 4 4 2 2 2 1 1 1 1 1 1 1 1 1 1 1 1 1 1 2 3 3 2 1 2 1
4 7 5 4 2 2 5 4 4 5 4 2 3 4 5 4 4 4 4 4 4 4 4 3 4 3 3 2 2 1 1 2 2 1 1 1 1 1 1 1 1 1 2 2 2 2 2 2 1
3 4 4 4 4 4 3 6 5 6 6 5 5 5 6 6 6 5 4 4 3 3 3 3 3 3 2 2 2 1 1 2 2 2 2 2 1 1 1 1 1 1 2 2 2 2 2 2 1
4 5 6 4 3 4 3 7 5 5 5 4 5 4 4 5 5 5 4 3 3 3 3 3 3 3 3 3 2 2 2 1 2 2 2 2 2 2 2 2 2 2 2 2 2 2 2 2 2
Wind_Direction
5 77 78 59 55 53 48 359 15 44 59 40 54 73 84 77 88 123 263 245 182 239 317 61 89 85 79 74 70 70 71 69 70 72 72 72 72 77 81 86 86 84 84 84 86 86 86 85 84
53 84 57 58 75 68 23 353 45 56 138 133 67 67 70 62 77 114 278 211 154 165 46 71 88 84 81 78 74 74 70 68 69 70 70 70 70 76 81 81 83 81 79 80 82 83 82 82 84
95 59 74 66 76 111 116 60 98 71 81 77 63 52 68 65 72 152 216 162 119 90 57 55 83 85 83 80 75 75 71 71 69 68 71 72 73 76 79 82 82 80 77 78 80 80 80 80 80
77 46 55 66 68 44 130 152 137 102 63 48 78 59 41 10 46 174 144 121 105 64 49 71 90 89 85 81 78 76 73 70 66 66 69 72 75 81 82 82 82 82 80 77 76 77 79 79 80
60 71 61 57 44 20 43 100 81 81 63 49 71 77 16 347 37 110 122 120 120 77 38 76 90 90 89 80 78 78 72 66 64 67 69 73 78 78 80 81 82 82 79 78 76 76 77 77 77
55 66 79 79 51 27 39 68 86 79 82 80 85 83 360 346 68 114 119 118 104 80 43 61 78 77 81 79 77 78 73 68 65 64 67 70 74 76 76 78 78 78 79 79 76 76 75 73 74
91 81 95 109 87 51 79 82 97 104 91 94 119 96 5 324 248 118 86 85 72 62 54 34 32 42 55 63 67 71 67 67 65 61 60 63 64 70 73 74 76 79 77 76 74 75 74 72 73
110 94 80 91 108 64 57 87 94 105 98 96 103 125 183 229 139 89 63 52 48 41 38 20 20 27 28 27 43 53 57 59 59 59 57 56 55 59 63 64 69 77 76 73 74 77 77 75 73
83 76 101 156 151 140 99 96 66 60 83 62 59 119 164 137 109 86 57 34 21 10 1 4 6 10 14 6 23 37 42 44 46 52 53 51 47 48 52 58 63 70 73 74 76 77 76 73 69
75 98 155 189 161 144 115 104 113 79 65 51 47 52 89 106 114 114 104 101 247 276 288 287 337 355 11 11 23 25 29 37 47 55 53 53 52 52 56 53 59 67 71 74 74 75 72 69 63
85 123 128 86 125 126 114 92 93 113 103 191 167 145 113 110 116 125 148 204 232 245 273 256 275 350 17 12 23 32 37 45 55 66 63 60 57 54 53 52 51 57 65 67 67 67 63 64 64
85 78 116 121 110 108 117 111 92 120 208 193 160 144 131 132 146 167 188 204 192 124 264 289 113 65 40 41 41 49 53 55 56 66 81 82 68 59 60 58 56 59 66 71 69 70 68 65 65
78 75 71 92 91 94 94 94 114 13 48 101 110 117 133 149 173 190 171 174 145 135 125 133 98 103 98 78 50 64 64 73 78 79 85 100 93 79 73 66 66 66 74 78 76 75 72 65 60
101 87 74 72 78 79 97 69 78 291 104 102 117 136 156 169 181 153 138 147 151 138 124 95 105 117 107 97 92 71 69 78 83 78 92 113 111 105 94 81 73 70 76 83 83 81 77 70 68
88 77 49 38 76 98 94 27 337 217 121 120 136 150 155 201 181 183 187 174 167 152 120 104 115 101 100 96 92 83 73 75 79 79 84 104 115 115 110 99 84 81 87 90 86 80 77 71 67
63 62 45 318 100 110 107 299 305 151 127 142 154 154 160 235 229 215 186 161 152 137 124 118 113 108 103 86 77 75 76 77 74 81 79 86 111 120 113 107 97 98 97 94 90 78 74 65 61
38 75 237 317 32 111 118 241 309 107 134 150 168 175 189 247 281 233 172 157 156 151 139 119 100 101 101 89 75 69 69 63 60 73 79 91 109 121 119 114 110 107 100 93 97 80 87 80 70
204 193 223 257 266 111 125 255 308 84 151 172 186 193 203 222 247 229 170 140 138 130 120 118 102 91 88 74 64 53 49 39 39 50 72 98 113 123 124 118 119 117 106 90 90 91 75 80 78
156 155 187 255 192 124 161 245 277 251 165 195 206 208 217 238 270 116 119 108 110 103 111 123 126 109 97 85 80 71 42 13 13 27 65 89 106 124 128 125 125 125 121 124 121 108 91 72 79
138 137 173 338 52 138 152 290 275 225 215 209 208 214 220 221 184 132 134 120 137 144 141 145 149 141 137 126 129 123 110 39 1 12 50 70 97 125 138 137 142 139 128 126 127 124 112 83 66
150 173 194 191 31 44 37 333 308 280 235 217 217 217 214 200 191 182 167 167 153 167 172 172 162 149 129 110 87 65 48 30 19 14 12 18 77 115 128 143 145 149 152 158 158 150 140 142 62
234 223 168 137 93 324 46 301 291 283 278 254 242 229 227 214 193 187 179 176 186 197 172 150 136 128 115 123 120 116 118 138 267 293 326 360 41 91 130 146 147 151 159 164 175 165 152 146 153
197 106 109 111 120 37 7 213 291 321 273 262 247 231 225 213 196 190 186 183 181 166 152 141 128 113 99 109 128 125 104 135 344 11 23 10 9 40 79 141 141 149 158 169 169 159 163 160 163
118 73 56 48 69 342 256 187 287 257 241 261 245 225 218 210 198 182 169 155 148 137 136 133 129 121 108 111 114 133 137 123 87 38 29 8 358 5 29 105 132 147 158 168 174 169 164 167 161
83 87 34 2 10 266 265 202 255 259 248 231 228 218 207 197 183 165 159 164 169 165 166 153 150 157 142 129 136 164 166 159 171 192 210 268 342 332 330 69 143 157 167 160 153 150 155 158 161
146 137 155 203 235 283 316 245 260 272 289 249 207 184 171 178 178 172 176 177 180 182 177 171 171 179 175 167 195 187 155 165 194 196 203 215 231 244 258 149 158 163 157 147 140 139 157 142 159
131 149 159 137 166 293 290 292 303 327 6 49 135 150 178 184 182 181 179 180 185 188 188 185 179 190 196 195 195 189 182 191 208 210 207 224 247 242 213 167 180 162 149 144 142 147 160 137 157
129 142 106 122 155 272 297 288 265 284 282 261 196 194 201 190 183 181 183 189 194 195 190 179 179 193 205 200 206 212 215 221 209 181 200 222 238 202 152 142 145 141 141 141 138 144 138 125 150
93 97 105 113 150 163 272 278 234 234 240 233 222 210 198 191 190 189 191 197 185 171 174 182 186 187 194 200 216 218 230 230 208 195 218 216 208 180 176 170 152 138 131 133 141 151 149 147 151
173 167 148 155 210 175 191 269 276 247 240 222 224 221 203 191 187 186 182 175 170 177 186 195 200 203 210 203 202 217 225 215 214 221 228 213 198 189 185 162 146 148 139 142 152 164 163 162 167
Height
1511 1510 1511 1512 1516 1529 1534 1531 1527 1526 1527 1528 1527 1527 1529 1532 1535 1540 1536 1533 1533 1532 1531 1531 1531 1530 1530 1530 1529 1529 1529 1528 1528 1528 1528 1528 1527 1527 1527 1526 1527 1527 1527 1528 1528 1529 1530 1530 1531
1511 1511 1513 1514 1526 1540 1538 1530 1528 1527 1528 1528 1528 1529 1530 1532 1533 1534 1534 1534 1533 1533 1533 1532 1532 1531 1531 1531 1530 1530 1530 1530 1529 1529 1529 1529 1529 1529 1529 1528 1528 1528 1529 1529 1530 1530 1531 1531 1531
1512 1512 1514 1519 1531 1539 1536 1530 1529 1528 1529 1529 1530 1531 1532 1534 1535 1535 1535 1535 1534 1534 1534 1533 1533 1533 1532 1532 1532 1531 1531 1531 1531 1530 1530 1530 1530 1530 1530 1530 1530 1530 1530 1531 1531 1532 1532 1532 1533
1513 1515 1517 1527 1534 1533 1531 1530 1529 1529 1529 1530 1531 1533 1535 1536 1536 1536 1536 1536 1536 1535 1535 1535 1534 1534 1534 1533 1533 1533 1532 1532 1532 1532 1532 1532 1532 1532 1532 1532 1532 1532 1532 1532 1533 1533 1533 1534 1534
1514 1516 1526 1535 1535 1532 1530 1530 1530 1530 1531 1532 1533 1535 1536 1537 1537 1537 1537 1537 1537 1537 1537 1536 1536 1535 1535 1535 1535 1534 1534 1534 1534 1534 1533 1533 1533 1533 1534 1534 1534 1534 1534 1534 1535 1535 1535 1535 1535
1516 1519 1536 1542 1537 1533 1532 1531 1531 1532 1533 1534 1535 1536 1538 1539 1539 1539 1539 1539 1539 1539 1539 1538 1538 1537 1537 1537 1536 1536 1536 1536 1536 1535 1535 1535 1535 1535 1535 1535 1536 1536 1536 1536 1537 1537 1536 1536 1536
1518 1526 1537 1539 1539 1535 1533 1533 1533 1534 1535 1536 1536 1538 1539 1540 1540 1540 1540 1541 1541 1540 1540 1540 1540 1539 1539 1539 1538 1538 1538 1538 1537 1537 1537 1537 1537 1537 1537 1537 1537 1538 1538 1538 1538 1538 1538 1538 1538
1519 1527 1536 1539 1539 1537 1534 1534 1535 1535 1536 1537 1538 1538 1540 1541 1541 1542 1542 1542 1542 1542 1542 1542 1542 1541 1541 1541 1541 1540 1540 1540 1539 1539 1539 1539 1539 1538 1538 1539 1539 1539 1539 1540 1540 1540 1540 1540 1540
1521 1532 1540 1538 1537 1536 1534 1535 1537 1537 1537 1538 1538 1539 1540 1541 1542 1543 1543 1543 1543 1543 1544 1544 1543 1543 1543 1543 1543 1542 1542 1542 1541 1541 1541 1541 1540 1540 1540 1540 1540 1541 1541 1541 1541 1541 1541 1541 1542
1523 1536 1535 1532 1533 1534 1535 1536 1537 1538 1539 1539 1540 1541 1541 1542 1543 1543 1544 1544 1544 1545 1545 1545 1545 1545 1545 1545 1544 1544 1544 1544 1543 1543 1543 1543 1542 1542 1542 1542 1542 1542 1542 1542 1543 1543 1543 1543 1543
1525 1532 1531 1532 1532 1534 1536 1537 1538 1539 1541 1540 1540 1541 1542 1543 1544 1544 1545 1545 1546 1546 1546 1546 1546 1546 1546 1546 1546 1546 1546 1546 1545 1545 1545 1545 1544 1544 1544 1544 1544 1544 1544 1544 1544 1544 1544 1545 1545
1528 1530 1531 1533 1534 1535 1537 1538 1540 1540 1541 1541 1541 1542 1543 1544 1545 1546 1546 1547 1547 1547 1548 1548 1548 1548 1548 1547 1547 1547 1547 1547 1547 1547 1547 1546 1546 1546 1546 1546 1546 1546 1546 1546 1546 1546 1546 1546 1546
1530 1532 1533 1535 1536 1537 1538 1539 1541 1541 1541 1542 1542 1543 1544 1545 1546 1547 1547 1548 1548 1548 1549 1549 1549 1549 1549 1549 1549 1549 1549 1549 1549 1549 1548 1548 1548 1548 1548 1548 1548 1548 1548 1548 1548 1548 1548 1548 1547
1532 1533 1535 1536 1537 1538 1539 1541 1542 1543 1542 1543 1544 1544 1545 1546 1547 1547 1548 1548 1549 1549 1550 1550 1550 1550 1550 1550 1550 1550 1550 1550 1550 1550 1550 1550 1550 1550 1550 1550 1550 1550 1550 1550 1550 1549 1549 1549 1549
1533 1536 1538 1538 1539 1540 1541 1544 1543 1543 1543 1543 1544 1545 1546 1547 1547 1548 1548 1549 1550 1550 1551 1551 1551 1551 1551 1551 1551 1551 1551 1552 1552 1551 1551 1551 1551 1551 1551 1551 1551 1551 1551 1551 1551 1551 1551 1551 1550
1536 1542 1547 1542 1540 1541 1545 1551 1544 1543 1543 1544 1545 1546 1546 1547 1548 1548 1549 1550 1551 1551 1551 1552 1552 1552 1552 1552 1552 1552 1552 1552 1553 1553 1553 1553 1553 1553 1553 1553 1553 1553 1553 1553 1553 1552 1552 1552 1552
1544 1550 1549 1545 1541 1542 1545 1550 1545 1544 1544 1544 1545 1546 1546 1547 1548 1548 1549 1550 1551 1552 1552 1552 1553 1553 1553 1553 1553 1553 1553 1553 1553 1553 1553 1554 1554 1554 1554 1554 1554 1554 1554 1554 1554 1554 1554 1554 1554
1550 1550 1549 1548 1543 1543 1547 1548 1545 1544 1544 1544 1545 1545 1546 1546 1547 1548 1549 1550 1551 1552 1553 1553 1553 1554 1554 1554 1554 1554 1554 1554 1554 1554 1554 1554 1554 1554 1554 1554 1555 1555 1555 1555 1555 1555 1555 1555 1555
1542 1546 1549 1546 1542 1545 1548 1548 1545 1544 1544 1544 1544 1544 1545 1546 1547 1548 1549 1550 1551 1552 1553 1553 1553 1554 1554 1554 1554 1554 1554 1554 1554 1554 1554 1554 1555 1555 1555 1555 1555 1556 1556 1556 1557 1557 1557 1556 1556
1542 1547 1549 1546 1542 1545 1548 1548 1544 1543 1543 1543 1543 1543 1544 1545 1546 1547 1549 1550 1551 1552 1552 1553 1553 1554 1554 1554 1554 1555 1555 1554 1555 1555 1555 1554 1555 1555 1555 1555 1556 1556 1556 1557 1557 1557 1557 1557 1557
1543 1546 1546 1547 1545 1545 1548 1551 1545 1542 1542 1542 1542 1542 1543 1543 1545 1546 1548 1549 1550 1551 1552 1553 1553 1554 1554 1554 1554 1554 1555 1554 1555 1554 1554 1554 1554 1555 1555 1556 1556 1556 1557 1557 1557 1558 1558 1558 1558
1545 1539 1541 1544 1552 1557 1553 1564 1549 1543 1542 1540 1540 1540 1541 1542 1543 1545 1546 1548 1549 1550 1552 1553 1553 1554 1554 1554 1554 1554 1554 1554 1554 1554 1554 1554 1555 1555 1555 1555 1556 1556 1557 1557 1557 1558 1558 1558 1558
1539 1538 1541 1545 1551 1558 1556 1562 1555 1545 1543 1540 1538 1538 1539 1540 1542 1543 1545 1547 1549 1550 1551 1552 1553 1553 1554 1554 1554 1554 1554 1554 1554 1554 1554 1554 1555 1555 1555 1555 1556 1556 1556 1557 1557 1557 1558 1558 1558
1536 1542 1546 1552 1557 1567 1559 1563 1558 1548 1541 1537 1536 1536 1537 1539 1540 1542 1544 1546 1548 1549 1550 1551 1552 1552 1553 1553 1553 1553 1553 1553 1553 1553 1553 1554 1554 1554 1555 1555 1555 1556 1556 1556 1557 1557 1557 1557 1557
1539 1552 1566 1568 1573 1570 1556 1559 1554 1538 1535 1534 1534 1534 1535 1537 1539 1541 1543 1544 1547 1548 1549 1550 1551 1551 1552 1552 1552 1552 1552 1552 1552 1552 1553 1553 1553 1554 1554 1554 1554 1555 1555 1555 1556 1556 1556 1556 1556
1542 1549 1566 1574 1576 1569 1558 1559 1546 1534 1532 1531 1532 1533 1534 1536 1538 1539 1541 1543 1545 1547 1548 1549 1550 1550 1551 1551 1551 1552 1552 1552 1552 1552 1552 1552 1552 1553 1553 1553 1553 1554 1554 1554 1555 1555 1555 1555 1555
1543 1548 1549 1562 1565 1570 1563 1553 1540 1532 1532 1531 1532 1532 1533 1535 1537 1539 1541 1543 1544 1546 1547 1548 1549 1549 1550 1550 1550 1551 1551 1551 1551 1551 1551 1551 1552 1552 1552 1552 1552 1553 1553 1553 1554 1554 1554 1554 1554
1537 1544 1554 1562 1571 1575 1564 1558 1551 1537 1533 1532 1532 1532 1533 1535 1536 1538 1540 1542 1544 1545 1546 1547 1547 1548 1548 1549 1549 1549 1550 1550 1550 1550 1550 1550 1551 1551 1551 1551 1551 1552 1552 1552 1553 1553 1553 1553 1553
1542 1546 1552 1561 1563 1572 1573 1561 1536 1534 1531 1530 1530 1531 1532 1534 1535 1537 1539 1541 1543 1544 1545 1545 1546 1546 1547 1547 1548 1548 1548 1548 1549 1548 1549 1549 1549 1549 1550 1550 1550 1550 1551 1551 1551 1552 1552 1552 1552
1536 1541 1550 1559 1563 1566 1569 1559 1529 1528 1527 1528 1528 1530 1531 1533 1535 1536 1538 1540 1541 1542 1543 1543 1544 1544 1545 1546 1546 1546 1546 1546 1546 1546 1547 1547 1547 1548 1548 1548 1549 1549 1549 1550 1550 1550 1550 1551 1550